This demonstration page uses our WeatherBlox Daily Observations layout. Learn more.

Left ArrowRight Arrow

Hourly Observations for April 16, 2021

Temp ( °F °C ) Dew Point ( °F °C ) Humidity (%) Winds ( mph kmh ) Pressure ( in mb ) Visibility ( mi km ) Precip ( " mm )
12:53 am 00:53 Clear 54 12.2 32 0 43 43 NW 9 15 29.90 1013 10 16 0.00 0.00
1:53 am 01:53 Clear 53 11.7 32 0 45 45 VRB 3 6 29.90 1013 10 16 0.00 0.00
2:53 am 02:53 Clear 51 10.6 34 1.1 52 52 Calm 29.90 1013 10 16 0.00 0.00
3:53 am 03:53 Clear 50 10 34 1.1 54 54 Calm 29.89 1012 10 16 0.00 0.00
4:53 am 04:53 Clear 50 10 34 1.1 54 54 Calm 29.88 1012 10 16 0.00 0.00
5:53 am 05:53 Clear 49 9.4 35 1.7 59 59 NNW 3 6 29.90 1013 10 16 0.00 0.00
6:53 am 06:53 Clear 48 8.9 36 2.2 63 63 Calm 29.91 1013 10 16 0.00 0.00
7:53 am 07:53 Sunny 48 8.9 37 2.8 66 66 W 3 6 29.93 1014 10 16 0.00 0.00
8:53 am 08:53 Sunny 52 11.1 38 3.3 59 59 NNE 3 6 29.94 1014 10 16 0.00 0.00
9:53 am 09:53 Sunny 56 13.3 39 3.9 53 53 NNE 5 7 29.94 1014 10 16 0.00 0.00
10:53 am 10:53 Sunny 58 14.4 35 1.7 42 42 VRB 5 7 29.96 1014 10 16 0.00 0.00
11:53 am 11:53 Sunny 60 15.6 34 1.1 38 38 E 8 13 29.93 1014 10 16 0.00 0.00
12:53 pm 12:53 Sunny 63 17.2 35 1.7 35 35 Calm 29.91 1013 10 16 0.00 0.00
1:53 pm 13:53 Sunny 65 18.3 35 1.7 33 33 NE 5 7 29.87 1012 10 16 0.00 0.00
2:53 pm 14:53 Sunny 67 19.4 35 1.7 31 31 NNW 3 6 29.85 1011 10 16 0.00 0.00
3:53 pm 15:53 Sunny 68 20 35 1.7 30 30 Calm 29.83 1010 10 16 0.00 0.00
4:53 pm 16:53 Sunny 67 19.4 34 1.1 30 30 W 5 7 29.83 1010 10 16 0.00 0.00
5:53 pm 17:53 Sunny 67 19.4 34 1.1 30 30 Calm 29.82 1010 10 16 0.00 0.00
6:53 pm 18:53 Sunny 66 18.9 36 2.2 33 33 S 6 9 29.83 1010 10 16 0.00 0.00
7:53 pm 19:53 Sunny 64 17.8 36 2.2 35 35 SSW 3 6 29.83 1010 10 16 0.00 0.00
8:53 pm 20:53 Clear 63 17.2 37 2.8 38 38 Calm 29.84 1011 10 16 0.00 0.00
9:53 pm 21:53 Clear 59 15 43 6.1 56 56 Calm 29.85 1011 10 16 0.00 0.00
10:53 pm 22:53 Clear 59 15 41 5 51 51 Calm 29.86 1011 10 16 0.00 0.00
11:53 pm 23:53 Clear 58 14.4 45 7.2 62 62 Calm 29.85 1011 10 16 0.00 0.00

Powered by AerisWeather